FW1003 Weather Reports


Display with metric or nautical units.
time (UTC)temp
F
wind
direction
speed
MPH
gust
MPH
rain 1hr
in
rain 24hr
in
rain mn
in
humidity
%
barometer
mb
20260509063009 76 261 3.0 10.0 0.00 0.00 0.00 64 1018.5
20260509061505 77 313 4.0 9.0 0.00 0.00 0.00 62 1018.5
20260509060004 76 146 2.0 6.0 0.00 0.00 0.00 61 1018.4
20260509054613 74 329 0.0 5.0 0.00 0.00 0.00 63 1018.5
20260509053132 73 131 1.0 3.0 0.00 0.00 0.00 67 1018.3
20260509051549 71 132 2.0 4.0 0.00 0.00 0.00 70 1018.4
20260509050042 70 132 1.0 4.0 0.00 0.00 0.00 72 1018.2
20260509044538 68 236 1.0 3.0 0.00 0.00 0.00 76 1018.2
20260509043039 66 360 0.0 0.0 0.00 0.00 0.00 77 1018.4
20260509041537 64 237 0.0 0.0 0.00 0.00 0.00 79 1018.4
20260509040025 61 236 0.0 0.0 0.00 0.00 0.00 78 1018.4
20260509034523 60 237 0.0 0.0 0.00 0.00 0.00 77 1018.3
20260509033019 60 236 0.0 0.0 0.00 0.00 0.00 78 1018.2
20260509031515 60 236 0.0 0.0 0.00 0.00 0.00 77 1018.1
20260509030006 59 238 0.0 0.0 0.00 0.00 0.00 77 1018.0
20260509024504 59 238 0.0 0.0 0.00 0.00 0.00 77 1017.9
20260509023004 60 238 0.0 0.0 0.00 0.00 0.00 77 1017.7
20260509021503 59 237 0.0 0.0 0.00 0.00 0.00 77 1017.8
20260509020001 60 237 0.0 0.0 0.00 0.00 0.00 77 1017.8
20260509014603 61 236 0.0 0.0 0.00 0.00 0.00 77 1017.6
20260509013109 61 237 0.0 0.0 0.00 0.00 0.00 77 1017.7
20260509011557 61 246 0.0 0.0 0.00 0.00 0.00 77 1017.8
20260509010056 61 246 0.0 0.0 0.00 0.00 0.00 76 1017.7
20260509004555 62 246 0.0 0.0 0.00 0.00 0.00 76 1017.7
20260509003051 62 246 0.0 0.0 0.00 0.00 0.00 76 1017.6
20260509001548 63 246 0.0 0.0 0.00 0.00 0.00 76 1017.8
20260509000046 63 246 0.0 0.0 0.00 0.00 0.00 76 1017.8
20260508234548 64 245 0.0 0.0 0.00 0.00 0.00 75 1017.6
20260508233043 64 246 1.0 3.0 0.00 0.00 0.00 75 1017.5
20260508231545 65 360 0.0 2.0 0.00 0.00 0.00 74 1017.6
20260508230047 67 323 0.0 4.0 0.00 0.00 0.00 75 1017.6
20260508224542 68 297 2.0 5.0 0.00 0.00 0.00 76 1017.5
20260508223038 69 335 2.0 8.0 0.00 0.00 0.00 76 1017.7
20260508221543 69 334 1.0 4.0 0.00 0.00 0.00 76 1017.7
20260508220036 69 360 1.0 4.0 0.00 0.00 0.00 75 1017.9
20260508214531 69 360 1.0 4.0 0.00 0.00 0.00 74 1017.9
20260508213027 68 360 0.0 3.0 0.00 0.00 0.00 72 1018.1
20260508211525 67 305 0.0 2.0 0.00 0.00 0.00 70 1018.2
20260508210024 67 304 0.0 1.0 0.00 0.00 0.00 68 1018.1
20260508204524 68 304 0.0 1.0 0.00 0.00 0.00 66 1018.2
20260508203021 68 304 0.0 1.0 0.00 0.00 0.00 63 1017.9
20260508201521 69 304 0.0 2.0 0.00 0.00 0.00 60 1017.8
20260508200021 69 303 1.0 3.0 0.00 0.00 0.00 55 1018.0
20260508194520 70 360 1.0 4.0 0.00 0.00 0.00 51 1018.1
20260508193018 70 360 2.0 5.0 0.00 0.00 0.00 52 1018.2
20260508191520 71 360 1.0 5.0 0.00 0.00 0.00 52 1018.3
20260508190016 70 313 1.0 4.0 0.00 0.00 0.00 53 1018.3
20260508184517 70 334 1.0 4.0 0.00 0.00 0.00 54 1018.4
20260508183014 70 360 2.0 8.0 0.00 0.00 0.00 57 1018.3
20260508181517 69 308 2.0 5.0 0.00 0.00 0.00 64 1018.3
20260508180013 69 285 1.0 5.0 0.00 0.00 0.00 68 1018.1
20260508174513 69 314 2.0 8.0 0.00 0.00 0.00 70 1018.2
20260508173011 70 360 1.0 6.0 0.00 0.00 0.00 72 1018.2
20260508171513 70 322 3.0 11.0 0.00 0.00 0.00 72 1018.1
20260508170010 70 360 3.0 10.0 0.00 0.00 0.00 72 1018.0
20260508164514 70 325 2.0 9.0 0.00 0.00 0.00 72 1017.9
20260508163009 71 360 3.0 10.0 0.00 0.00 0.00 71 1017.7
20260508161510 71 289 3.0 9.0 0.00 0.00 0.00 70 1017.7
20260508160008 72 317 3.0 12.0 0.00 0.00 0.00 69 1017.3
20260508154509 72 327 1.0 9.0 0.00 0.00 0.00 68 1017.3
20260508153005 73 317 4.0 11.0 0.00 0.00 0.00 67 1017.1
20260508151504 73 322 2.0 11.0 0.00 0.00 0.00 67 1016.9
20260508150005 74 315 3.0 12.0 0.00 0.00 0.00 66 1017.2
20260508144503 74 310 4.0 15.0 0.00 0.00 0.00 65 1017.0
20260508143004 74 160 5.0 14.0 0.00 0.00 0.00 63 1017.2
20260508141503 75 295 5.0 13.0 0.00 0.00 0.00 62 1017.1
20260508140002 76 360 6.0 13.0 0.00 0.00 0.00 62 1017.1
20260508134505 76 328 4.0 15.0 0.00 0.00 0.00 63 1017.1
20260508133112 76 333 3.0 15.0 0.00 0.00 0.00 62 1017.0
20260508131602 77 331 4.0 15.0 0.00 0.00 0.00 62 1017.1
20260508130111 77 329 6.0 12.0 0.00 0.00 0.00 62 1017.2
20260508124556 77 30 4.0 13.0 0.00 0.00 0.00 60 1017.4
20260508123103 78 323 2.0 16.0 0.00 0.00 0.00 61 1017.6
20260508121603 78 284 6.0 15.0 0.00 0.00 0.00 60 1017.7
20260508120057 78 306 4.0 14.0 0.00 0.00 0.00 60 1017.8
20260508114652 78 222 5.0 16.0 0.00 0.00 0.00 58 1017.9
20260508113051 77 330 5.0 14.0 0.00 0.00 0.00 59 1018.2
20260508111550 77 307 7.0 14.0 0.00 0.00 0.00 58 1018.4
20260508110052 79 350 5.0 14.0 0.00 0.00 0.00 57 1018.5
20260508104616 78 218 5.0 15.0 0.00 0.00 0.00 58 1018.6
20260508103048 78 351 7.0 15.0 0.00 0.00 0.00 57 1018.6
20260508101550 78 300 5.0 15.0 0.00 0.00 0.00 57 1018.6
20260508100047 78 355 4.0 13.0 0.00 0.00 0.00 58 1018.6
20260508094547 77 298 8.0 14.0 0.00 0.00 0.00 58 1018.8
20260508093044 78 290 3.0 14.0 0.00 0.00 0.00 58 1019.0
20260508091541 77 304 5.0 13.0 0.00 0.00 0.00 59 1019.2
20260508090050 77 315 6.0 19.0 0.00 0.00 0.00 59 1019.3
20260508084537 77 306 6.0 16.0 0.00 0.00 0.00 59 1019.4
20260508083044 77 311 4.0 13.0 0.00 0.00 0.00 59 1019.6
20260508081540 76 302 7.0 13.0 0.00 0.00 0.00 58 1019.9
20260508080030 77 302 2.0 14.0 0.00 0.00 0.00 59 1019.8
20260508074527 76 317 5.0 15.0 0.00 0.00 0.00 59 1019.8
20260508073024 76 335 6.0 15.0 0.00 0.00 0.00 58 1019.6
20260508071522 76 313 3.0 10.0 0.00 0.00 0.00 59 1019.6
20260508070022 77 360 2.0 12.0 0.00 0.00 0.00 58 1019.6
20260508064514 75 304 3.0 12.0 0.00 0.00 0.00 57 1019.8